Date String (YYYY-MM-DD hh:mm:ss) UTC,Instrument flags,Ambient pressure (hPa),Sample flow (lpm),Bypass flow (lpm),Sample temperature (°C),Ambient temperature (°C),ASC tube jacket temperature (°C),LED temperature (°C),Box temperature (°C),Sample RH (%),Span deviation,Mass concentration (μg/m³),Mass concentration (μg/m³),Mass concentration (μg/m³)
DateTimeUTC,F1_M11,P_M11,Q1_M11,Q2_M11,T1_M11,T2_M11,T3_M11,T4_M11,T5_M11,U1_M11,ZSPAN_M11,X0_M11,X2_M11,X1_M11
2021-10-19 15:00:00,,0820.0,5.01,0.00,28.0,27.2,00.0,36.9,29.8,14.0,0000.0,0014.79,0004.81,0002.99
2021-10-19 15:01:00,,0820.0,5.00,0.00,28.0,27.2,00.0,37.0,29.8,13.3,0000.0,0015.79,0004.80,0002.94
2021-10-19 15:02:00,,0819.9,5.00,0.00,28.0,27.2,00.0,37.0,29.8,13.3,0000.0,0016.15,0004.81,0002.91
2021-10-19 15:03:00,,0819.9,5.01,0.00,28.0,27.2,00.0,37.0,29.8,13.6,0000.0,0015.73,0004.84,0002.93
2021-10-19 15:04:00,,0819.9,4.99,0.00,28.0,27.2,00.0,37.0,29.8,13.6,0000.0,0015.68,0004.81,0002.96
2021-10-19 15:05:00,,0819.9,5.01,0.00,28.0,27.2,00.0,37.0,29.9,13.8,0000.0,0016.98,0004.82,0002.99
2021-10-19 15:06:00,,0819.9,5.01,0.00,28.0,27.2,00.0,37.0,29.9,13.9,0000.0,0016.20,0004.84,0003.01
2021-10-19 15:07:00,,0820.0,5.00,0.00,28.1,27.3,00.0,37.0,29.9,13.8,0000.0,0016.06,0004.88,0003.03
2021-10-19 15:08:00,,0820.0,5.00,0.00,28.1,27.3,00.0,37.0,29.9,13.5,0000.0,0016.13,0004.80,0003.04
2021-10-19 15:09:00,,0820.0,5.00,0.00,28.1,27.3,00.0,37.0,29.9,13.5,0000.0,0016.68,0004.83,0003.04
2021-10-19 15:10:00,,0820.0,5.00,0.00,28.1,27.3,00.0,37.1,29.9,13.8,0000.0,0017.88,0004.89,0003.05
2021-10-19 15:11:00,,0820.1,5.01,0.00,28.1,27.3,00.0,37.1,29.9,13.8,0000.0,0018.81,0004.96,0003.03
2021-10-19 15:12:00,,0820.0,5.00,0.00,28.1,27.3,00.0,37.1,30.0,13.8,0000.0,0018.48,0004.98,0003.02
2021-10-19 15:13:00,,0820.0,5.01,0.00,28.2,27.3,00.0,37.1,30.0,13.4,0000.0,0018.15,0004.91,0003.04
2021-10-19 15:14:00,,0820.0,5.00,0.00,28.2,27.4,00.0,37.1,30.0,13.4,0000.0,0018.94,0004.85,0003.01
2021-10-19 15:15:00,,0820.0,5.01,0.00,28.2,27.4,00.0,37.2,30.0,13.7,0000.0,0019.22,0004.84,0002.98
2021-10-19 15:16:00,,0820.1,5.00,0.00,28.2,27.4,00.0,37.2,30.0,13.8,0000.0,0019.21,0004.89,0002.99
2021-10-19 15:17:00,,0820.1,5.00,0.00,28.2,27.5,00.0,37.2,30.1,13.8,0000.0,0018.40,0004.84,0003.00
2021-10-19 15:18:00,,0820.2,5.01,0.00,28.2,27.5,00.0,37.2,30.1,13.7,0000.0,0018.39,0004.83,0003.02
2021-10-19 15:19:00,,0820.2,4.99,0.00,28.3,27.5,00.0,37.2,30.1,13.7,0000.0,0018.71,0004.81,0003.06
2021-10-19 15:20:00,,0820.2,5.00,0.00,28.3,27.5,00.0,37.2,30.1,13.7,0000.0,0018.19,0004.79,0003.07
2021-10-19 15:21:00,,0820.2,5.00,0.00,28.3,27.5,00.0,37.3,30.1,13.7,0000.0,0016.92,0004.70,0003.04
2021-10-19 15:22:00,,0820.2,5.00,0.00,28.3,27.5,00.0,37.3,30.1,13.7,0000.0,0015.50,0004.62,0003.04
2021-10-19 15:23:00,,0820.2,5.00,0.00,28.3,27.5,00.0,37.3,30.2,13.8,0000.0,0014.67,0004.55,0003.05
2021-10-19 15:24:00,,0820.2,5.00,0.00,28.3,27.6,00.0,37.3,30.2,13.7,0000.0,0015.68,0004.59,0003.04
2021-10-19 15:25:00,,0820.3,5.01,0.00,28.4,27.6,00.0,37.3,30.2,13.7,0000.0,0014.66,0004.63,0003.03
2021-10-19 15:26:00,,0820.3,5.01,0.00,28.4,27.6,00.0,37.3,30.2,13.8,0000.0,0014.17,0004.64,0003.01
2021-10-19 15:27:00,,0820.2,5.00,0.00,28.4,27.6,00.0,37.4,30.2,14.0,0000.0,0013.62,0004.57,0002.97
2021-10-19 15:28:00,,0820.2,4.99,0.00,28.4,27.6,00.0,37.4,30.2,13.9,0000.0,0013.85,0004.57,0002.94
2021-10-19 15:29:00,,0820.2,5.01,0.00,28.4,27.6,00.0,37.4,30.3,13.9,0000.0,0013.73,0004.53,0002.91
2021-10-19 15:30:00,,0820.2,4.99,0.00,28.5,27.6,00.0,37.4,30.3,14.0,0000.0,0013.32,0004.54,0002.86
2021-10-19 15:31:00,,0820.2,5.00,0.00,28.5,27.7,00.0,37.4,30.3,13.9,0000.0,0013.66,0004.53,0002.82
2021-10-19 15:32:00,,0820.2,5.01,0.00,28.5,27.7,00.0,37.4,30.3,14.0,0000.0,0013.75,0004.52,0002.80
2021-10-19 15:33:00,,0820.2,5.00,0.00,28.5,27.7,00.0,37.5,30.4,14.0,0000.0,0014.51,0004.55,0002.78
2021-10-19 15:34:00,,0820.2,5.00,0.00,28.5,27.7,00.0,37.5,30.3,14.1,0000.0,0015.55,0004.53,0002.75
2021-10-19 15:35:00,,0820.2,4.99,0.00,28.5,27.7,00.0,37.5,30.4,14.2,0000.0,0015.51,0004.56,0002.74
2021-10-19 15:36:00,,0820.3,4.99,0.00,28.6,27.7,00.0,37.5,30.4,14.2,0000.0,0016.34,0004.57,0002.75
2021-10-19 15:37:00,,0820.2,5.00,0.00,28.6,27.8,00.0,37.5,30.4,14.3,0000.0,0017.17,0004.56,0002.75
2021-10-19 15:38:00,,0820.3,5.00,0.00,28.6,27.8,00.0,37.5,30.4,14.4,0000.0,0016.89,0004.53,0002.75
2021-10-19 15:39:00,,0820.3,5.00,0.00,28.6,27.8,00.0,37.5,30.4,14.4,0000.0,0016.36,0004.50,0002.73
2021-10-19 15:40:00,,0820.3,5.01,0.00,28.6,27.8,00.0,37.6,30.5,14.5,0000.0,0017.07,0004.45,0002.71
2021-10-19 15:41:00,,0820.3,4.99,0.00,28.6,27.9,00.0,37.6,30.5,14.4,0000.0,0017.73,0004.44,0002.70
2021-10-19 15:42:00,,0820.3,5.00,0.00,28.7,27.9,00.0,37.6,30.5,14.4,0000.0,0017.35,0004.40,0002.70
2021-10-19 15:43:00,,0820.4,4.99,0.00,28.7,27.9,00.0,37.6,30.5,14.4,0000.0,0017.52,0004.39,0002.70
2021-10-19 15:44:00,,0820.4,5.00,0.00,28.7,27.9,00.0,37.7,30.6,14.4,0000.0,0017.40,0004.41,0002.69
2021-10-19 15:45:00,,0820.4,5.00,0.00,28.7,27.9,00.0,37.7,30.6,14.5,0000.0,0016.15,0004.42,0002.69
2021-10-19 15:46:00,,0820.4,4.99,0.00,28.7,28.0,00.0,37.7,30.6,14.7,0000.0,0016.51,0004.46,0002.69
2021-10-19 15:47:00,,0820.5,5.00,0.00,28.8,28.0,00.0,37.7,30.6,14.6,0000.0,0016.11,0004.42,0002.70
2021-10-19 15:48:00,,0820.5,5.00,0.00,28.8,28.0,00.0,37.7,30.6,14.7,0000.0,0015.37,0004.40,0002.69
2021-10-19 15:49:00,,0820.4,5.00,0.00,28.8,28.0,00.0,37.7,30.7,14.7,0000.0,0015.11,0004.37,0002.68
2021-10-19 15:50:00,,0820.5,5.01,0.00,28.8,28.0,00.0,37.8,30.7,14.8,0000.0,0015.92,0004.39,0002.68
2021-10-19 15:51:00,,0820.5,5.01,0.00,28.8,28.0,00.0,37.8,30.7,14.8,0000.0,0016.14,0004.48,0002.68
2021-10-19 15:52:00,,0820.5,4.99,0.00,28.8,28.0,00.0,37.8,30.7,14.8,0000.0,0015.84,0004.50,0002.68
2021-10-19 15:53:00,,0820.5,5.01,0.00,28.9,28.0,00.0,37.8,30.7,14.9,0000.0,0015.50,0004.52,0002.70
2021-10-19 15:54:00,,0820.5,5.00,0.00,28.9,28.1,00.0,37.8,30.7,14.8,0000.0,0015.52,0004.49,0002.70
2021-10-19 15:55:00,,0820.6,5.01,0.00,28.9,28.1,00.0,37.8,30.7,14.7,0000.0,0015.44,0004.46,0002.70
2021-10-19 15:56:00,,0820.6,5.00,0.00,28.9,28.1,00.0,37.9,30.8,14.7,0000.0,0015.43,0004.43,0002.70
2021-10-19 15:57:00,,0820.6,5.00,0.00,28.9,28.1,00.0,37.9,30.8,14.8,0000.0,0016.18,0004.38,0002.69
2021-10-19 15:58:00,,0820.6,5.01,0.00,28.9,28.1,00.0,37.9,30.8,14.9,0000.0,0015.97,0004.40,0002.68
2021-10-19 15:59:00,,0820.6,5.01,0.00,28.9,28.1,00.0,37.9,30.8,15.1,0000.0,0016.40,0004.38,0002.68
